Location: �clusier
(49.9361°N, 2.7869°E)
Time: 08:16:47
(UTC+00:00)

ATLAS CENTAUR R/B - Pass Details

Date: 25 October 2021
Orbit: 452 x 688 km, 64.7° (Epoch: 06 December)

Event Time Altitude Azimuth Distance (km) Brightness Sun altitude
Exits shadow 05:32:01 - 314° (NW) 2,153 3.9 -9.4°
Reaches altitude 10° 05:33:04 10° 325° (NW) 1,947 3.7 -9.3°
Maximum altitude 05:35:08 13° 353° (N) 1,792 3.8 -8.9°
Drops below altitude 10° 05:37:15 10° 21° (NNE) 2,017 4.4 -8.6°
Sets 05:40:53 0° 49° (NE) 2,979 5.7 -8.0°
